星链-34304 (STARLINK-34304)

导读 | 星芒AI

STARLINK-34304 是 SpaceX Starlink 卫星互联网项目中的一颗低轨卫星,属于第三代星链卫星(v1.5 或 v2 版本)。该卫星由猎鹰9号火箭发射入轨,旨在为全球提供高速、低延迟的宽带互联网服务。它运行在约 550 公里的轨道高度,配备先进通信设备,支持 Ku 和 Ka 波段,提升网络容量与覆盖范围。STARLINK-34304 与其他星链卫星协同工作,为偏远地区和城市用户带来稳定网络连接。

基本信息
目录编号:
64224
目录名称:
STARLINK-34304
国际标识:
2025-117X
轨道中心:
EARTH
卫星名称:
星链-34304
卫星全名:
星链-34304 (STARLINK-34304)
卫星状态:
在轨 (已飞行162 天)
发射日期:
2025-05-31 UTC
国别 :
美国 (US)
星等 :
--
轨道信息
数据来源 国际轨道数据
星历时间: 2025-11-09T04:02:36+0800
15小时前
查看轨道信息
半长轴: 6853.186km
偏心率: 0.0001415
轨道倾角: 53.158°
近地点辐角 116.975°
升交点赤经 240.867°
平近点角 243.139°
近地点: 474.081km
远地点: 476.021km
周期: 94.102分钟
每日圈数: 15.302559
详细信息
固有亮度:
5
最大亮度:
2.5
卫星平台:
Starlink V1.0
覆盖范围:
全球
运营商:
太空探索技术公司
运营商所在国:
美国
制造商(研发单位):
太空探索技术公司
制造商所在国:
美国
使用方式:
暂无
卫星简介
Starlink 计划是 SpaceX 推出的全球卫星互联网项目,通过发射低轨道卫星,为全球尤其是偏远地区提供高速、低延迟的互联网服务。自 2019 年起,Starlink 已部署数千颗卫星,旨在缩小全球数字鸿沟,推动互联网普及。该项目还为军事、航空等行业提供通信支持,带来广泛经济效益。
2D轨道图
3D轨道图
轨道高度分析图
轨道倾角分析图
轨道综合分析图
查看轨道综合分析图